Lid_Strength_Index
11 10 11 11 10 10 9 9 9 8 8 7 6 5 4 3 4 3 4 5 5 5 6 5 5 6 6 6 7 6 6 5 5 11 12 12 13 13 12 13 13 11 12
12 11 11 11 11 11 11 11 11 10 10 9 9 8 7 6 6 5 5 5 5 6 6 7 6 7 7 7 7 7 7 7 6 11 13 13 13 13 13 14 14 13 12
12 12 12 12 12 12 12 12 12 11 11 11 10 10 9 9 9 9 8 7 5 5 5 5 5 7 7 8 8 8 9 9 9 11 13 13 14 14 14 14 15 16 13
12 12 13 13 12 12 12 12 12 12 12 11 11 11 10 10 10 10 8 8 8 7 6 6 7 7 6 8 9 10 11 11 11 11 13 13 14 14 14 15 16 15 15
12 12 12 12 12 12 13 13 13 13 12 12 12 12 12 11 11 11 11 10 9 9 9 8 8 9 10 10 9 10 11 11 12 11 14 14 15 16 15 15 15 15 15
13 13 13 14 14 14 14 14 14 13 13 13 13 13 13 12 11 10 10 12 11 11 11 10 11 13 12 10 10 9 10 11 12 12 12 13 14 14 15 15 15 16 17
14 14 15 15 15 15 14 14 14 14 14 14 14 14 14 13 11 11 11 13 13 13 12 12 12 14 14 12 11 10 10 10 10 12 12 13 14 14 14 15 15 15 16
15 15 15 15 15 15 15 15 15 14 14 14 14 14 14 13 10 10 10 12 13 13 14 14 14 14 14 13 13 13 14 13 14 13 12 13 13 13 13 14 15 16 17
15 15 15 15 15 15 15 15 15 14 14 14 13 14 14 13 11 10 10 12 12 13 13 13 13 13 12 11 13 13 14 15 13 13 13 12 12 12 13 15 17 18 19
15 15 15 15 15 16 15 15 14 14 14 14 13 13 14 14 11 10 10 12 12 12 13 13 12 13 11 10 12 13 14 14 15 14 14 13 14 14 13 15 16 17 18
15 15 16 16 16 16 16 15 15 14 14 14 14 13 14 13 13 10 10 11 11 12 12 13 12 10 10 9 9 12 12 13 13 15 15 17 17 17 17 16 16 16 18
17 17 17 17 16 15 15 15 15 16 16 16 16 15 15 14 13 11 10 10 9 11 12 12 13 10 8 8 9 10 10 12 15 16 17 18 18 18 18 18 18 18 17
19 20 20 18 17 16 17 16 17 17 18 17 16 16 15 15 15 12 11 10 10 11 10 11 11 10 9 8 8 8 11 15 17 18 18 17 17 17 18 19 19 19 19
21 20 19 19 19 18 17 17 18 18 19 17 17 17 16 15 15 15 14 14 12 12 11 10 11 11 10 10 12 9 11 14 15 17 17 17 17 19 19 19 20 20 21
21 21 21 20 21 20 19 19 18 17 17 17 16 15 15 15 14 12 12 12 14 13 13 13 13 13 14 14 12 13 14 15 15 16 16 19 18 19 19 19 19 20 21
22 22 22 22 22 21 21 20 17 16 15 14 14 14 15 13 12 12 11 11 10 10 12 12 14 14 14 13 13 16 15 15 15 15 16 17 18 19 19 20 20 21 22
24 22 23 23 23 22 22 22 22 19 16 15 15 14 14 14 13 12 12 11 11 10 13 13 14 15 14 13 14 15 16 15 15 15 16 17 17 18 19 20 20 21 22
27 26 25 24 24 23 22 22 21 22 22 21 18 16 15 14 14 13 12 12 13 12 13 13 13 14 14 13 14 15 15 16 16 16 16 16 17 18 19 20 21 22 21
27 27 27 25 25 25 24 23 23 23 22 22 21 18 18 15 14 14 13 15 15 14 14 13 13 13 14 13 14 14 15 16 16 16 16 17 17 18 19 20 20 21 21
32 29 27 27 25 25 24 24 24 23 23 22 22 21 20 22 19 18 17 16 16 15 13 13 12 13 13 13 14 14 15 17 17 17 16 17 17 18 19 20 20 22 22
31 31 29 28 27 26 25 25 24 23 23 23 22 20 17 18 18 18 17 16 15 14 13 12 12 14 13 13 14 15 16 17 17 17 16 17 18 19 19 20 20 21 22
32 31 31 30 27 27 26 25 25 24 24 23 22 21 17 19 20 19 18 18 16 15 15 15 13 14 13 14 14 15 16 17 17 17 17 18 19 19 20 20 21 22 23
33 32 30 29 28 27 26 25 25 24 23 23 22 22 21 20 20 19 18 17 17 16 16 15 15 14 14 14 14 14 16 17 17 16 17 18 20 20 21 22 22 23 23
34 31 30 29 28 28 27 26 25 24 23 23 23 22 21 21 20 19 19 18 17 16 16 17 15 15 16 16 16 15 15 15 16 16 17 19 20 20 21 22 22 22 23
34 31 30 29 29 28 27 26 25 24 24 23 22 22 21 20 20 20 19 18 18 18 18 17 17 17 17 17 17 16 16 15 17 17 17 19 20 21 22 22 22 23 23
32 31 30 29 28 27 26 26 25 24 24 23 22 21 21 20 20 19 19 19 18 18 18 17 17 17 17 17 17 16 16 15 17 17 18 19 21 21 22 22 23 23 24